Wind_Speed
12 8 11 11 12 12 12 12 11 10 13 12 12 10 9 10 9 9 7 9 11 10 8 8 9 9 7 8 10 9 10 10 10 9 7 6 6 5 4 3 2 1 1
13 3 4 9 10 11 12 12 12 13 13 12 10 8 8 6 4 5 8 8 8 8 8 8 8 8 7 8 9 11 10 9 8 7 7 7 7 6 6 5 3 2 2
4 4 7 9 10 12 12 13 13 13 12 8 8 7 6 7 8 8 7 6 6 4 5 6 8 7 6 8 8 9 10 9 7 7 5 4 5 6 5 5 4 3 2
7 7 10 11 11 12 12 12 12 11 8 6 7 5 4 4 4 4 4 4 2 4 3 4 6 5 5 6 7 7 8 7 7 7 5 3 1 2 4 4 4 3 3
8 9 12 12 12 12 11 11 10 8 6 6 5 4 3 3 3 3 4 3 3 4 5 6 7 6 6 7 7 6 5 5 5 5 3 2 1 2 3 2 2 2 3
11 10 12 13 11 10 9 9 7 6 5 6 5 5 5 4 6 7 7 6 4 4 4 4 6 8 7 8 6 4 3 2 3 3 2 2 3 4 5 5 5 5 6
12 12 13 11 11 10 8 8 6 6 7 8 9 11 11 12 12 11 10 10 8 6 4 1 4 6 7 9 5 3 4 3 2 1 3 7 11 12 8 6 6 7 9
11 12 11 10 10 8 7 8 8 9 10 12 14 15 16 15 14 15 13 10 10 10 10 6 1 4 5 11 9 6 3 2 5 6 5 7 8 5 12 8 9 11 13
10 9 9 9 8 8 9 10 10 12 13 12 12 12 11 11 13 14 13 13 12 13 14 14 8 8 7 12 9 6 6 2 3 4 6 9 11 9 3 2 4 8 8
10 8 8 8 9 10 12 12 13 14 12 11 10 10 10 11 11 13 13 12 13 13 16 18 16 12 10 8 4 3 5 4 5 7 8 9 10 9 2 7 7 7 6
8 7 8 9 11 12 12 13 14 13 11 10 11 9 9 10 11 12 12 12 13 14 14 14 16 15 14 12 9 8 6 5 4 4 6 7 7 5 5 7 7 7 6
9 9 10 11 11 12 12 16 15 11 9 10 9 9 9 9 10 10 9 9 10 12 12 11 11 11 10 8 6 5 4 3 3 4 5 5 5 5 6 6 6 8 9
10 10 12 12 12 12 15 16 14 12 11 10 10 10 11 10 11 9 7 6 7 7 8 9 9 8 7 5 4 2 1 2 2 4 5 6 6 7 8 9 10 9 9
10 12 14 14 14 14 15 15 13 12 11 10 10 10 10 10 10 9 8 7 7 6 6 6 5 5 3 2 1 3 5 6 6 7 9 10 10 11 12 12 11 12 13
11 14 15 16 16 16 15 13 12 12 11 10 9 8 8 9 9 8 6 5 6 6 6 5 4 4 5 6 7 8 8 10 11 11 12 11 11 11 12 12 13 14 14
13 15 17 18 18 18 15 12 11 11 10 8 7 8 9 10 8 7 7 8 9 9 9 8 9 10 12 12 13 12 12 11 12 13 13 14 13 16 17 17 16 14 15
15 17 19 20 20 18 16 13 12 10 8 7 8 8 10 10 10 11 11 12 13 15 14 10 13 18 17 16 14 14 15 14 14 16 16 18 19 21 22 22 20 20 19
14 15 17 19 19 17 15 13 11 9 7 7 7 6 7 9 10 9 12 14 16 15 16 19 22 20 19 19 19 19 17 17 17 18 18 19 20 24 28 27 23 22 22
12 14 14 16 16 16 15 12 9 7 5 6 6 4 4 7 8 9 13 13 15 16 19 21 20 25 27 29 26 28 24 25 22 21 23 22 22 26 29 28 29 30 30
13 13 14 13 14 14 13 10 8 6 5 6 3 2 5 7 8 10 12 14 15 17 19 17 20 27 37 33 33 14 21 23 23 26 21 23 25 30 29 28 28 30 32
13 14 13 13 13 13 12 9 7 6 5 4 1 1 4 6 8 11 12 14 17 19 19 22 24 28 34 26 32 27 17 16 12 11 13 17 20 26 31 31 30 32 29
16 17 16 14 13 12 11 10 9 7 6 4 2 3 5 7 9 11 12 15 18 20 18 19 23 21 32 35 32 20 15 17 14 17 19 22 28 27 28 32 33 33 29
15 15 16 16 14 12 11 11 10 9 7 5 4 3 5 7 10 10 13 16 18 18 18 20 24 25 27 32 33 34 24 25 24 27 26 30 33 33 33 35 34 32 33
16 16 15 14 14 14 13 12 10 9 8 6 5 4 6 9 11 11 14 14 16 18 20 21 24 28 28 21 23 27 28 29 25 22 28 28 31 28 30 33 29 29 31
12 14 15 15 13 13 13 11 9 9 7 6 4 5 8 10 10 13 14 15 18 19 20 23 25 30 32 36 26 28 31 34 30 23 22 32 34 33 30 30 30 28 26
11 11 12 13 14 13 11 11 11 9 7 6 6 7 8 9 11 13 15 17 19 18 20 21 24 29 36 38 28 31 32 37 36 29 28 28 30 31 31 30 31 31 34
Wind_Direction
169 33 27 47 61 78 91 94 97 97 94 93 86 81 98 95 85 65 79 94 85 82 81 86 89 95 96 86 86 90 89 87 98 105 107 105 98 100 98 101 112 209 311
189 222 43 67 84 97 103 107 99 91 91 89 82 86 87 76 56 79 94 94 83 83 90 91 96 101 115 113 102 104 103 94 100 108 112 115 113 108 106 97 86 75 356
170 195 107 96 101 105 101 104 94 89 88 90 87 85 86 93 91 95 102 100 106 80 90 115 114 115 120 124 118 118 113 110 101 93 86 104 127 126 117 100 90 83 72
169 109 109 108 105 105 105 100 89 82 81 84 83 83 87 93 108 111 114 123 121 131 158 142 146 124 128 139 148 137 124 117 113 104 95 82 99 148 151 140 120 119 141
109 120 116 116 121 121 114 99 84 81 84 68 57 57 86 94 94 93 109 119 122 149 186 209 211 196 189 181 166 140 131 126 111 106 105 134 161 278 270 235 183 178 187
129 129 128 134 129 126 119 95 95 90 85 78 83 78 80 85 88 97 101 104 114 120 167 199 203 204 198 188 177 160 137 106 102 97 62 355 279 236 224 232 248 240 239
137 135 134 135 133 129 121 109 106 107 101 96 83 85 92 93 92 94 96 92 78 61 66 139 199 202 179 176 168 144 117 102 58 3 319 325 305 256 233 231 230 248 249
146 143 144 148 145 130 126 126 128 119 111 107 102 88 91 88 82 90 96 82 78 72 60 44 132 173 173 170 176 185 175 298 304 303 326 353 2 282 230 246 265 277 269
151 157 156 158 147 140 140 136 134 123 119 116 95 95 91 84 85 83 81 78 69 62 53 52 88 133 141 168 182 206 279 280 34 53 33 18 15 23 179 286 320 313 321
159 158 167 159 147 148 142 137 130 131 124 112 102 92 88 85 78 84 78 73 70 62 61 58 71 99 111 141 144 131 110 98 63 27 10 8 15 33 99 338 328 325 321
162 161 160 150 151 149 140 132 136 133 126 106 98 90 84 83 85 73 74 73 70 63 63 66 73 82 92 99 98 91 77 52 35 18 11 13 13 7 340 335 322 311 301
169 170 159 152 154 142 133 134 138 135 120 106 92 81 76 73 69 64 62 59 67 64 59 60 64 67 69 72 68 63 55 41 16 346 346 339 330 326 323 316 310 294 290
169 165 162 151 144 136 138 137 142 133 116 104 95 81 74 71 68 61 50 41 36 47 57 48 49 50 59 66 54 39 345 301 291 293 307 313 314 314 305 298 300 293 281
161 158 159 147 143 144 142 145 145 133 120 108 96 83 77 72 71 61 42 26 18 20 40 45 42 37 16 8 324 302 291 282 277 283 300 314 314 306 299 294 287 283 285
153 154 153 147 144 145 147 148 144 129 120 115 99 83 65 58 52 44 35 18 5 355 357 356 347 328 299 306 311 305 300 289 289 290 296 294 300 305 310 304 290 283 276
147 153 151 146 145 149 151 148 139 127 124 111 95 72 53 44 38 34 31 24 12 351 329 325 324 327 326 324 324 324 325 311 305 306 309 309 318 319 311 299 289 288 286
152 156 152 150 153 154 156 148 141 134 118 101 75 62 59 64 60 72 67 55 44 39 34 19 5 360 347 339 332 323 316 311 314 318 321 320 322 333 338 329 310 303 298
159 161 159 158 159 159 159 154 148 139 117 96 83 77 88 75 61 53 43 30 27 21 15 19 19 9 348 330 321 312 314 310 312 318 322 326 327 331 333 331 320 314 306
167 170 169 166 161 158 158 156 149 133 128 113 107 80 66 50 45 22 14 11 10 7 13 19 3 360 348 336 329 283 283 287 311 324 326 323 318 321 329 325 319 314 306
177 177 175 170 166 163 163 164 161 154 153 146 129 53 31 19 7 2 355 357 359 3 7 8 357 1 8 10 3 348 307 286 290 307 307 319 319 318 321 321 324 327 318
164 174 175 177 173 177 182 178 176 171 164 169 189 3 6 10 354 346 344 342 357 5 2 4 9 12 9 8 14 19 41 25 4 351 344 328 322 313 308 306 317 320 320
170 172 180 179 181 186 188 189 193 195 196 215 265 322 343 345 339 336 340 347 357 4 8 10 10 15 19 29 20 13 8 1 359 351 341 332 324 313 312 306 310 312 303
175 178 181 182 188 190 193 198 203 201 205 231 254 303 329 340 334 326 335 347 355 7 10 20 9 6 1 357 19 18 13 4 343 332 327 322 322 319 311 308 310 312 308
181 183 188 189 187 193 194 205 208 208 218 230 254 289 310 316 321 323 336 350 2 11 11 11 2 354 345 7 24 16 9 358 342 321 322 328 334 332 321 317 317 303 305
180 183 185 189 192 193 200 206 205 208 205 226 255 286 307 309 315 323 339 356 15 16 7 2 355 341 333 339 6 9 5 353 348 350 351 344 340 332 332 332 323 317 311
188 189 187 187 191 194 197 200 205 202 208 226 262 293 300 305 312 325 351 5 17 12 358 348 342 329 324 323 8 11 3 355 346 343 349 345 339 334 335 335 326 317 308
Height
5904 5900 5901 5905 5906 5907 5909 5910 5911 5912 5911 5913 5913 5914 5913 5913 5914 5914 5913 5913 5913 5913 5912 5912 5911 5912 5913 5912 5912 5912 5912 5912 5911 5910 5910 5910 5910 5910 5911 5911 5911 5910 5910
5907 5906 5906 5906 5908 5910 5911 5913 5913 5912 5913 5914 5914 5915 5915 5915 5915 5915 5914 5914 5913 5914 5913 5913 5913 5913 5913 5913 5914 5913 5913 5913 5912 5912 5912 5911 5911 5911 5911 5911 5911 5911 5911
5907 5909 5909 5909 5911 5913 5914 5914 5913 5914 5914 5915 5915 5916 5915 5915 5915 5915 5915 5914 5914 5914 5914 5914 5914 5914 5914 5914 5915 5915 5914 5914 5914 5914 5914 5913 5912 5911 5911 5911 5911 5911 5911
5911 5911 5911 5913 5914 5915 5915 5914 5914 5915 5916 5916 5915 5916 5916 5916 5916 5916 5915 5915 5914 5914 5915 5915 5915 5915 5915 5915 5915 5915 5915 5914 5914 5915 5915 5915 5914 5913 5912 5912 5911 5911 5911
5912 5912 5913 5914 5915 5915 5915 5916 5916 5917 5917 5917 5917 5917 5917 5917 5916 5916 5916 5916 5915 5915 5914 5913 5914 5914 5915 5915 5916 5916 5916 5916 5916 5916 5916 5916 5915 5915 5914 5913 5912 5911 5911
5913 5914 5914 5915 5916 5916 5917 5918 5919 5919 5919 5919 5918 5918 5918 5917 5917 5917 5916 5916 5916 5915 5914 5913 5913 5913 5914 5916 5917 5917 5917 5917 5917 5917 5917 5916 5915 5914 5913 5912 5912 5911 5911
5914 5914 5916 5916 5918 5918 5919 5920 5921 5920 5921 5921 5921 5921 5919 5919 5918 5917 5918 5917 5917 5916 5915 5914 5913 5914 5915 5916 5918 5918 5919 5919 5918 5917 5916 5916 5915 5913 5912 5912 5911 5910 5909
5914 5916 5916 5918 5919 5920 5921 5922 5922 5923 5924 5924 5923 5923 5922 5921 5921 5920 5920 5919 5918 5917 5916 5915 5914 5915 5916 5917 5917 5918 5918 5918 5918 5917 5916 5915 5912 5908 5910 5911 5910 5909 5908
5916 5917 5918 5919 5920 5921 5923 5923 5924 5925 5925 5926 5925 5924 5924 5924 5923 5923 5922 5921 5921 5920 5919 5916 5915 5915 5916 5917 5918 5919 5919 5918 5917 5917 5915 5913 5911 5908 5908 5908 5907 5905 5902
5917 5918 5920 5921 5922 5923 5923 5925 5926 5927 5927 5926 5926 5926 5926 5925 5925 5925 5924 5923 5923 5922 5920 5919 5918 5918 5918 5919 5920 5919 5919 5918 5917 5915 5913 5912 5911 5909 5908 5908 5906 5904 5902
5918 5919 5921 5922 5923 5923 5925 5926 5927 5928 5928 5928 5928 5927 5927 5927 5927 5927 5927 5926 5925 5924 5923 5922 5921 5920 5920 5921 5920 5920 5919 5917 5916 5914 5913 5911 5910 5908 5907 5905 5904 5902 5900
5918 5919 5921 5922 5923 5925 5926 5927 5928 5929 5929 5930 5930 5930 5929 5929 5929 5930 5929 5929 5928 5926 5925 5924 5923 5922 5922 5921 5920 5919 5918 5916 5915 5914 5911 5909 5908 5906 5904 5902 5900 5899 5897
5918 5919 5921 5922 5924 5926 5928 5929 5930 5931 5931 5932 5932 5932 5931 5931 5931 5932 5931 5931 5930 5928 5927 5926 5925 5924 5922 5922 5921 5919 5918 5916 5914 5912 5911 5909 5906 5904 5901 5899 5897 5895 5892
5918 5919 5921 5923 5925 5927 5929 5931 5932 5932 5933 5934 5934 5933 5933 5934 5933 5932 5932 5931 5931 5929 5928 5928 5926 5925 5923 5921 5920 5919 5917 5916 5913 5911 5909 5907 5905 5903 5900 5898 5895 5892 5891
5919 5920 5922 5924 5927 5929 5931 5933 5935 5935 5936 5936 5936 5935 5935 5935 5934 5933 5932 5932 5931 5931 5930 5928 5926 5925 5923 5922 5920 5918 5916 5915 5913 5910 5907 5905 5903 5901 5899 5896 5893 5890 5887
5920 5922 5924 5925 5928 5931 5933 5936 5937 5938 5938 5938 5937 5937 5937 5936 5935 5934 5933 5932 5931 5930 5930 5930 5929 5928 5926 5924 5923 5921 5918 5916 5914 5911 5908 5905 5901 5898 5895 5892 5889 5887 5885
5922 5924 5926 5927 5930 5933 5935 5937 5938 5939 5940 5940 5938 5938 5938 5938 5937 5937 5936 5935 5934 5933 5932 5931 5931 5932 5930 5927 5924 5921 5918 5915 5912 5909 5906 5904 5901 5896 5892 5888 5885 5881 5879
5925 5926 5928 5930 5931 5934 5936 5938 5939 5941 5941 5940 5940 5940 5940 5940 5939 5938 5937 5936 5935 5934 5933 5935 5934 5930 5928 5925 5921 5917 5914 5911 5908 5905 5902 5899 5896 5893 5889 5884 5880 5876 5871
5927 5929 5931 5933 5933 5935 5937 5940 5941 5942 5941 5941 5942 5942 5942 5941 5939 5938 5938 5937 5936 5935 5936 5935 5932 5930 5927 5921 5915 5911 5908 5906 5906 5902 5900 5897 5892 5888 5883 5880 5876 5871 5867
5928 5931 5933 5935 5936 5937 5939 5940 5942 5943 5943 5943 5943 5943 5943 5942 5940 5939 5938 5937 5936 5937 5937 5935 5931 5929 5925 5919 5913 5904 5904 5901 5900 5899 5896 5894 5889 5884 5878 5874 5870 5866 5861
5929 5932 5934 5935 5937 5938 5939 5941 5942 5944 5944 5943 5943 5943 5943 5942 5940 5939 5938 5937 5938 5937 5934 5931 5929 5928 5923 5916 5910 5905 5902 5902 5897 5894 5889 5886 5883 5880 5874 5868 5864 5860 5855
5928 5930 5932 5935 5937 5938 5940 5941 5942 5944 5944 5944 5943 5943 5942 5941 5940 5939 5937 5937 5937 5936 5934 5931 5927 5925 5922 5916 5911 5906 5902 5899 5895 5891 5886 5881 5877 5873 5868 5863 5858 5853 5848
5928 5930 5932 5934 5936 5938 5940 5942 5943 5943 5944 5944 5943 5943 5942 5941 5939 5938 5937 5937 5935 5934 5932 5930 5926 5922 5921 5916 5911 5907 5903 5901 5896 5887 5882 5877 5871 5864 5859 5855 5850 5846 5841
5928 5930 5932 5934 5935 5937 5939 5941 5942 5943 5943 5944 5943 5942 5941 5939 5939 5938 5937 5936 5935 5932 5929 5927 5924 5920 5916 5911 5907 5904 5901 5899 5894 5888 5878 5872 5866 5860 5853 5848 5842 5838 5833
5929 5930 5931 5933 5935 5937 5939 5940 5942 5942 5943 5943 5942 5941 5939 5938 5938 5936 5937 5936 5934 5932 5928 5925 5923 5916 5910 5907 5904 5899 5895 5892 5887 5883 5878 5868 5861 5855 5848 5841 5837 5832 5828
5930 5931 5932 5932 5934 5936 5938 5939 5940 5941 5941 5941 5940 5940 5938 5937 5936 5936 5936 5935 5933 5929 5926 5922 5919 5913 5905 5897 5897 5891 5888 5885 5879 5875 5871 5866 5860 5854 5846 5838 5831 5824 5819